Tracking 29892 objects as of 21-Nov-2024
HD Live streaming from Space Station
objects crossing your sky now

CHINASAT 5 (SPACENET 1)

Track CHINASAT 5 (SPACENET 1) now!
CHINASAT 5 (SPACENET 1) is classified as:


NORAD ID: 14985
Int'l Code: 1984-049A
Perigee: 35,821.8 km
Apogee: 35,931.2 km
Inclination: 14.6 °
Period: 1,440.3 minutes
Semi major axis: 42247 km
RCS: 3.5119 m2 (large)
Launch date: May 23, 1984
Source: People's Republic of China (PRC)
Launch site: FRENCH GUIANA (FRGUI)
Your satellite tracking list
Your tracking list is empty




NASA's NSSDC Master Catalog

Two Line Element Set (TLE):
1 14985U 84049A   24325.66386910  .00000076  00000-0  00000+0 0  9999
2 14985  14.5809 352.6530 0012946 227.8764 135.3557  0.99977452125568
Source of the keplerian elements: AFSPC